Time,TemperatureF,DewpointF,PressureIn,WindDirection,WindDirectionDegrees,WindSpeedMPH,WindSpeedGustMPH,Humidity,HourlyPrecipIn,Conditions,Clouds,dailyrainin,SoftwareType,DateUTC
2013-02-25 02:00:00,30.0,19.0,30.03,NW,312,0.0,11.0,64,-99.99,,,-99.99,,2013-02-25 07:00:00,
2013-02-25 02:21:00,30.0,19.0,30.03,NW,312,0.0,11.0,64,-99.99,,,-99.99,,2013-02-25 07:21:00,
2013-02-25 02:32:00,30.0,19.0,30.03,NW,312,0.0,11.0,64,-99.99,,,-99.99,,2013-02-25 07:32:00,
2013-02-25 02:42:00,30.0,19.0,30.03,NW,312,0.0,11.0,64,-99.99,,,-99.99,,2013-02-25 07:42:00,
2013-02-25 02:52:00,30.0,19.0,30.03,NW,312,0.0,11.0,64,-99.99,,,-99.99,,2013-02-25 07:52:00,
2013-02-25 03:00:00,30.0,20.0,30.03,NNW,340,2.0,11.0,66,-99.99,,,-99.99,,2013-02-25 08:00:00,
2013-02-25 03:22:00,30.0,20.0,30.03,NNW,340,2.0,11.0,66,-99.99,,,-99.99,,2013-02-25 08:22:00,
2013-02-25 03:32:00,30.0,20.0,30.03,NNW,340,2.0,11.0,66,-99.99,,,-99.99,,2013-02-25 08:32:00,
2013-02-25 03:42:00,30.0,20.0,30.03,NNW,340,2.0,11.0,66,-99.99,,,-99.99,,2013-02-25 08:42:00,
2013-02-25 03:52:00,30.0,20.0,30.03,NNW,340,2.0,11.0,66,-99.99,,,-99.99,,2013-02-25 08:52:00,
2013-02-25 04:00:00,29.0,20.0,30.03,NNW,335,5.0,10.0,68,-99.99,,,-99.99,,2013-02-25 09:00:00,
2013-02-25 04:21:00,29.0,20.0,30.03,NNW,335,5.0,10.0,68,-99.99,,,-99.99,,2013-02-25 09:21:00,
2013-02-25 04:32:00,29.0,20.0,30.03,NNW,335,5.0,10.0,68,-99.99,,,-99.99,,2013-02-25 09:32:00,
2013-02-25 04:42:00,29.0,20.0,30.03,NNW,335,5.0,10.0,68,-99.99,,,-99.99,,2013-02-25 09:42:00,
2013-02-25 04:52:00,29.0,20.0,30.03,NNW,335,5.0,10.0,68,-99.99,,,-99.99,,2013-02-25 09:52:00,
2013-02-25 05:00:00,29.0,21.0,30.06,North,2,0.0,7.0,71,-99.99,,,-99.99,,2013-02-25 10:00:00,
2013-02-25 05:21:00,29.0,21.0,30.06,North,2,0.0,7.0,71,-99.99,,,-99.99,,2013-02-25 10:21:00,
2013-02-25 05:32:00,29.0,21.0,30.06,North,2,0.0,7.0,71,-99.99,,,-99.99,,2013-02-25 10:32:00,
2013-02-25 05:42:00,29.0,21.0,30.06,North,2,0.0,7.0,71,-99.99,,,-99.99,,2013-02-25 10:42:00,
2013-02-25 05:52:00,29.0,21.0,30.06,North,2,0.0,7.0,71,-99.99,,,-99.99,,2013-02-25 10:52:00,
2013-02-25 06:00:00,28.0,20.0,30.06,NNW,348,0.0,6.0,73,-99.99,,,-99.99,,2013-02-25 11:00:00,
2013-02-25 06:22:00,28.0,20.0,30.06,NNW,348,0.0,6.0,73,-99.99,,,-99.99,,2013-02-25 11:22:00,
2013-02-25 06:32:00,28.0,20.0,30.06,NNW,348,0.0,6.0,73,-99.99,,,-99.99,,2013-02-25 11:32:00,
2013-02-25 06:42:00,28.0,20.0,30.06,NNW,348,0.0,6.0,73,-99.99,,,-99.99,,2013-02-25 11:42:00,
2013-02-25 06:52:00,28.0,20.0,30.06,NNW,348,0.0,6.0,73,-99.99,,,-99.99,,2013-02-25 11:52:00,
2013-02-25 07:00:00,26.0,20.0,30.09,SW,226,0.0,7.0,83,-99.99,,,-99.99,,2013-02-25 12:00:00,
2013-02-25 07:22:00,26.0,20.0,30.09,SW,226,0.0,7.0,83,-99.99,,,-99.99,,2013-02-25 12:22:00,
2013-02-25 07:32:00,26.0,20.0,30.09,SW,226,0.0,7.0,83,-99.99,,,-99.99,,2013-02-25 12:32:00,
2013-02-25 07:42:00,26.0,20.0,30.09,SW,226,0.0,7.0,83,-99.99,,,-99.99,,2013-02-25 12:42:00,
2013-02-25 07:56:00,26.0,20.0,30.09,SW,226,0.0,7.0,83,-99.99,,,-99.99,,2013-02-25 12:56:00,
2013-02-25 08:00:00,31.0,21.0,30.12,NW,325,4.0,5.0,67,-99.99,,,-99.99,,2013-02-25 13:00:00,
2013-02-25 08:23:00,31.0,21.0,30.12,NW,325,4.0,5.0,67,-99.99,,,-99.99,,2013-02-25 13:23:00,
2013-02-25 08:32:00,31.0,21.0,30.12,NW,325,4.0,5.0,67,-99.99,,,-99.99,,2013-02-25 13:32:00,
2013-02-25 08:42:00,31.0,21.0,30.12,NW,325,4.0,5.0,67,-99.99,,,-99.99,,2013-02-25 13:42:00,
2013-02-25 08:52:00,31.0,21.0,30.12,NW,325,4.0,5.0,67,-99.99,,,-99.99,,2013-02-25 13:52:00,
2013-02-25 09:00:00,36.0,23.0,30.12,North,354,12.0,14.0,59,-99.99,,,-99.99,,2013-02-25 14:00:00,
2013-02-25 09:22:00,36.0,23.0,30.12,North,354,12.0,14.0,59,-99.99,,,-99.99,,2013-02-25 14:22:00,
2013-02-25 09:32:00,36.0,23.0,30.12,North,354,12.0,14.0,59,-99.99,,,-99.99,,2013-02-25 14:32:00,
2013-02-25 09:42:00,36.0,23.0,30.12,North,354,12.0,14.0,59,-99.99,,,-99.99,,2013-02-25 14:42:00,
2013-02-25 09:52:00,36.0,23.0,30.12,North,354,12.0,14.0,59,-99.99,,,-99.99,,2013-02-25 14:52:00,
2013-02-25 10:00:00,39.0,25.0,30.12,North,0,4.0,15.0,57,-99.99,,,-99.99,,2013-02-25 15:00:00,
2013-02-25 10:22:00,39.0,25.0,30.12,North,0,4.0,15.0,57,-99.99,,,-99.99,,2013-02-25 15:22:00,
2013-02-25 10:32:00,39.0,25.0,30.12,North,0,4.0,15.0,57,-99.99,,,-99.99,,2013-02-25 15:32:00,
2013-02-25 10:42:00,39.0,25.0,30.12,North,0,4.0,15.0,57,-99.99,,,-99.99,,2013-02-25 15:42:00,
2013-02-25 10:52:00,39.0,25.0,30.12,North,0,4.0,15.0,57,-99.99,,,-99.99,,2013-02-25 15:52:00,
2013-02-25 11:00:00,42.0,25.0,30.15,NNW,334,6.0,13.0,51,-99.99,,,-99.99,,2013-02-25 16:00:00,
2013-02-25 11:22:00,42.0,25.0,30.15,NNW,334,6.0,13.0,51,-99.99,,,-99.99,,2013-02-25 16:22:00,
2013-02-25 11:32:00,42.0,25.0,30.15,NNW,334,6.0,13.0,51,-99.99,,,-99.99,,2013-02-25 16:32:00,
2013-02-25 11:42:00,42.0,25.0,30.15,NNW,334,6.0,13.0,51,-99.99,,,-99.99,,2013-02-25 16:42:00,
2013-02-25 11:52:00,42.0,25.0,30.15,NNW,334,6.0,13.0,51,-99.99,,,-99.99,,2013-02-25 16:52:00,
2013-02-25 12:00:00,43.0,25.0,30.15,NW,326,7.0,12.0,49,-99.99,,,-99.99,,2013-02-25 17:00:00,
2013-02-25 12:22:00,43.0,25.0,30.15,NW,326,7.0,12.0,49,-99.99,,,-99.99,,2013-02-25 17:22:00,
2013-02-25 12:32:00,43.0,25.0,30.15,NW,326,7.0,12.0,49,-99.99,,,-99.99,,2013-02-25 17:32:00,
2013-02-25 12:42:00,43.0,25.0,30.15,NW,326,7.0,12.0,49,-99.99,,,-99.99,,2013-02-25 17:42:00,
2013-02-25 12:52:00,43.0,25.0,30.15,NW,326,7.0,12.0,49,-99.99,,,-99.99,,2013-02-25 17:52:00,
2013-02-25 13:00:00,44.0,23.0,30.15,North,349,5.0,11.0,43,-99.99,,,-99.99,,2013-02-25 18:00:00,
2013-02-25 13:33:00,44.0,23.0,30.15,North,349,5.0,11.0,43,-99.99,,,-99.99,,2013-02-25 18:33:00,
2013-02-25 13:42:00,44.0,23.0,30.15,North,349,5.0,11.0,43,-99.99,,,-99.99,,2013-02-25 18:42:00,
2013-02-25 13:52:00,44.0,23.0,30.15,North,349,5.0,11.0,43,-99.99,,,-99.99,,2013-02-25 18:52:00,
2013-02-25 14:00:00,43.0,24.0,30.15,North,349,5.0,12.0,47,-99.99,,,-99.99,,2013-02-25 19:00:00,
2013-02-25 14:32:00,43.0,24.0,30.15,North,349,5.0,12.0,47,-99.99,,,-99.99,,2013-02-25 19:32:00,
2013-02-25 14:42:00,43.0,24.0,30.15,North,349,5.0,12.0,47,-99.99,,,-99.99,,2013-02-25 19:42:00,
2013-02-25 14:52:00,43.0,24.0,30.15,North,349,5.0,12.0,47,-99.99,,,-99.99,,2013-02-25 19:52:00,
2013-02-25 15:00:00,44.0,25.0,30.15,North,7,4.0,10.0,46,-99.99,,,-99.99,,2013-02-25 20:00:00,
2013-02-25 15:22:00,44.0,25.0,30.15,North,7,4.0,10.0,46,-99.99,,,-99.99,,2013-02-25 20:22:00,
2013-02-25 15:32:00,44.0,25.0,30.15,North,7,4.0,10.0,46,-99.99,,,-99.99,,2013-02-25 20:32:00,
2013-02-25 15:42:00,44.0,25.0,30.15,North,7,4.0,10.0,46,-99.99,,,-99.99,,2013-02-25 20:42:00,
2013-02-25 15:52:00,44.0,25.0,30.15,North,7,4.0,10.0,46,-99.99,,,-99.99,,2013-02-25 20:52:00,
2013-02-25 16:00:00,45.0,25.0,30.15,NW,322,6.0,11.0,46,-99.99,,,-99.99,,2013-02-25 21:00:00,
2013-02-25 16:22:00,45.0,25.0,30.15,NW,322,6.0,11.0,46,-99.99,,,-99.99,,2013-02-25 21:22:00,
2013-02-25 16:32:00,45.0,25.0,30.15,NW,322,6.0,11.0,46,-99.99,,,-99.99,,2013-02-25 21:32:00,
2013-02-25 16:42:00,45.0,25.0,30.15,NW,322,6.0,11.0,46,-99.99,,,-99.99,,2013-02-25 21:42:00,
2013-02-25 16:52:00,45.0,25.0,30.15,NW,322,6.0,11.0,46,-99.99,,,-99.99,,2013-02-25 21:52:00,
2013-02-25 17:00:00,44.0,25.0,30.15,North,0,4.0,10.0,48,-99.99,,,-99.99,,2013-02-25 22:00:00,
2013-02-25 17:21:00,44.0,25.0,30.15,North,0,4.0,10.0,48,-99.99,,,-99.99,,2013-02-25 22:21:00,
2013-02-25 17:32:00,44.0,25.0,30.15,North,0,4.0,10.0,48,-99.99,,,-99.99,,2013-02-25 22:32:00,
2013-02-25 17:42:00,44.0,25.0,30.15,North,0,4.0,10.0,48,-99.99,,,-99.99,,2013-02-25 22:42:00,
2013-02-25 17:52:00,44.0,25.0,30.15,North,0,4.0,10.0,48,-99.99,,,-99.99,,2013-02-25 22:52:00,
2013-02-25 18:00:00,38.0,27.0,30.18,WSW,246,0.0,7.0,63,-99.99,,,-99.99,,2013-02-25 23:00:00,
2013-02-25 18:22:00,38.0,27.0,30.18,WSW,246,0.0,7.0,63,-99.99,,,-99.99,,2013-02-25 23:22:00,
2013-02-25 18:32:00,38.0,27.0,30.18,WSW,246,0.0,7.0,63,-99.99,,,-99.99,,2013-02-25 23:32:00,
2013-02-25 18:42:00,38.0,27.0,30.18,WSW,246,0.0,7.0,63,-99.99,,,-99.99,,2013-02-25 23:42:00,
2013-02-25 18:52:00,38.0,27.0,30.18,WSW,246,0.0,7.0,63,-99.99,,,-99.99,,2013-02-25 23:52:00,
2013-02-25 19:00:00,36.0,27.0,30.21,South,191,4.0,5.0,69,-99.99,,,-99.99,,2013-02-26 00:00:00,
2013-02-25 19:22:00,36.0,27.0,30.21,South,191,4.0,5.0,69,-99.99,,,-99.99,,2013-02-26 00:22:00,
2013-02-25 19:32:00,36.0,27.0,30.21,South,191,4.0,5.0,69,-99.99,,,-99.99,,2013-02-26 00:32:00,
2013-02-25 19:42:00,36.0,27.0,30.21,South,191,4.0,5.0,69,-99.99,,,-99.99,,2013-02-26 00:42:00,
2013-02-25 19:52:00,36.0,27.0,30.21,South,191,4.0,5.0,69,-99.99,,,-99.99,,2013-02-26 00:52:00,
2013-02-25 20:00:00,35.0,27.0,30.21,SSW,195,4.0,5.0,72,-99.99,,,-99.99,,2013-02-26 01:00:00,
2013-02-25 20:21:00,35.0,27.0,30.21,SSW,195,4.0,5.0,72,-99.99,,,-99.99,,2013-02-26 01:21:00,
2013-02-25 20:32:00,35.0,27.0,30.21,SSW,195,4.0,5.0,72,-99.99,,,-99.99,,2013-02-26 01:32:00,
2013-02-25 20:42:00,35.0,27.0,30.21,SSW,195,4.0,5.0,72,-99.99,,,-99.99,,2013-02-26 01:42:00,
2013-02-25 20:52:00,35.0,27.0,30.21,SSW,195,4.0,5.0,72,-99.99,,,-99.99,,2013-02-26 01:52:00,
2013-02-25 21:00:00,34.0,27.0,30.24,South,181,5.0,7.0,76,-99.99,,,-99.99,,2013-02-26 02:00:00,
2013-02-25 21:22:00,34.0,27.0,30.24,South,181,5.0,7.0,76,-99.99,,,-99.99,,2013-02-26 02:22:00,
2013-02-25 21:32:00,34.0,27.0,30.24,South,181,5.0,7.0,76,-99.99,,,-99.99,,2013-02-26 02:32:00,
2013-02-25 21:42:00,34.0,27.0,30.24,South,181,5.0,7.0,76,-99.99,,,-99.99,,2013-02-26 02:42:00,
2013-02-25 21:52:00,34.0,27.0,30.24,South,181,5.0,7.0,76,-99.99,,,-99.99,,2013-02-26 02:52:00,
2013-02-25 22:00:00,29.0,25.0,30.24,SSE,153,0.0,5.0,86,-99.99,,,-99.99,,2013-02-26 03:00:00,
2013-02-25 22:22:00,29.0,25.0,30.24,SSE,153,0.0,5.0,86,-99.99,,,-99.99,,2013-02-26 03:22:00,
2013-02-25 22:32:00,29.0,25.0,30.24,SSE,153,0.0,5.0,86,-99.99,,,-99.99,,2013-02-26 03:32:00,
2013-02-25 22:42:00,29.0,25.0,30.24,SSE,153,0.0,5.0,86,-99.99,,,-99.99,,2013-02-26 03:42:00,
2013-02-25 22:52:00,29.0,25.0,30.24,SSE,153,0.0,5.0,86,-99.99,,,-99.99,,2013-02-26 03:52:00,
2013-02-25 23:00:00,27.0,24.0,30.21,SW,236,0.0,0.0,91,-99.99,,,-99.99,,2013-02-26 04:00:00,
2013-02-25 23:22:00,27.0,24.0,30.21,SW,236,0.0,0.0,91,-99.99,,,-99.99,,2013-02-26 04:22:00,
2013-02-25 23:32:00,27.0,24.0,30.21,SW,236,0.0,0.0,91,-99.99,,,-99.99,,2013-02-26 04:32:00,
2013-02-25 23:42:00,27.0,24.0,30.21,SW,236,0.0,0.0,91,-99.99,,,-99.99,,2013-02-26 04:42:00,
2013-02-25 23:52:00,27.0,24.0,30.21,SW,236,0.0,0.0,91,-99.99,,,-99.99,,2013-02-26 04:52:00,